Weather History for Fairhope, AL

Change the Weather History Date:

Thursday, February 14, 2013

  Actual Average (KBFM) Record (KBFM)
Temperature  
Mean Temperature 47 °F -  
Max Temperature 57 °F 61 °F 80 °F (2000)
Min Temperature 37 °F 43 °F 30 °F (2006)
Degree Days  
Heating Degree Days 18    
Moisture  
Dew Point 40 °F    
Average Humidity 80    
Maximum Humidity 100    
Minimum Humidity 51    
Precipitation  
Precipitation 0.00 in - - ()
Sea Level Pressure  
Sea Level Pressure 30.10 in    
Wind  
Wind Speed 4 mph (North)    
Max Wind Speed 9 mph    
Max Gust Speed -    
Visibility 7 miles    
Events      
Averages and records for this station are not official NWS values.
T = Trace of Precipitation, MM = Missing Value Source: NWS Daily Summary

Daily Weather History Graph

Daily Weather History Graph

Search for Another Location

Airport:

Trip Planner

Search our weather history database for the weather conditions in past years. The results will help you decide how hot, cold, wet, or windy it might be!

Date:

Astronomy

Feb. 14, 2013 Rise Set
Actual Time 6:32 AM CST 5:39 PM CST
Civil Twilight 6:07 AM CST 6:03 PM CST
Nautical Twilight 5:39 AM CST 6:32 PM CST
Astronomical Twilight 5:11 AM CST 7:00 PM CST
Moon 8:57 AM CST (2/14) 10:15 PM CST (2/14)
Length of Visible Light 11h 55m
Length of Day
11h 06m
Waxing Crescent, 22% of the Moon is Illuminated
Feb 14
Waxing Crescent
Feb 17
First Quarter
Feb 25
Full
Mar 4
Last Quarter
Mar 11
New

Hourly Weather History & Observations

Time (CST) Temp. Windchill Dew Point Humidity Pressure Visibility Wind Dir Wind Speed Gust Speed Precip Events Conditions
12:15 AM 46.4 °F 45.2 °F 42.8 °F 87% 30.07 in 7.0 mi North 3.5 mph - N/A   Clear
12:35 AM 46.4 °F 45.2 °F 42.8 °F 87% 30.07 in 7.0 mi North 3.5 mph - N/A   Clear
12:55 AM 46.4 °F 43.5 °F 42.8 °F 87% 30.06 in 7.0 mi North 5.8 mph - N/A   Clear
1:15 AM 44.6 °F 42.2 °F 42.8 °F 93% 30.05 in 7.0 mi North 4.6 mph - N/A   Clear
1:35 AM 44.6 °F 42.2 °F 41.0 °F 87% 30.05 in 7.0 mi North 4.6 mph - N/A   Clear
1:55 AM 44.6 °F 42.2 °F 41.0 °F 87% 30.06 in 7.0 mi North 4.6 mph - N/A   Clear
2:15 AM 44.6 °F 43.1 °F 41.0 °F 87% 30.05 in 10.0 mi North 3.5 mph - N/A   Clear
2:35 AM 44.6 °F - 41.0 °F 87% 30.07 in 10.0 mi Calm Calm - N/A   Clear
2:55 AM 44.6 °F - 41.0 °F 87% 30.06 in 7.0 mi Calm Calm - N/A   Clear
3:15 AM 44.6 °F 42.2 °F 41.0 °F 87% 30.06 in 10.0 mi North 4.6 mph - N/A   Clear
3:35 AM 44.6 °F 43.1 °F 39.2 °F 81% 30.06 in 10.0 mi North 3.5 mph - N/A   Clear
3:55 AM 44.6 °F 42.2 °F 41.0 °F 87% 30.08 in 7.0 mi North 4.6 mph - N/A   Clear
4:15 AM 44.6 °F 42.2 °F 41.0 °F 87% 30.05 in 7.0 mi North 4.6 mph - N/A   Clear
4:35 AM 44.6 °F 41.4 °F 41.0 °F 87% 30.05 in 7.0 mi NNW 5.8 mph - N/A   Clear
4:55 AM 44.6 °F 42.2 °F 41.0 °F 87% 30.07 in 10.0 mi North 4.6 mph - N/A   Clear
5:15 AM 44.6 °F 42.2 °F 41.0 °F 87% 30.08 in 7.0 mi North 4.6 mph - N/A   Clear
5:35 AM 44.6 °F - 41.0 °F 87% 30.09 in 10.0 mi Calm Calm - N/A   Clear
5:55 AM 44.6 °F 43.1 °F 41.0 °F 87% 30.09 in 7.0 mi NNE 3.5 mph - N/A   Clear
6:15 AM 44.6 °F 41.4 °F 41.0 °F 87% 30.10 in 5.0 mi North 5.8 mph - N/A   Clear
6:35 AM 42.8 °F 40.1 °F 41.0 °F 93% 30.10 in 5.0 mi North 4.6 mph - N/A   Clear
6:55 AM 42.8 °F 39.3 °F 41.0 °F 93% 30.10 in 5.0 mi NNE 5.8 mph - N/A   Clear
7:15 AM 42.8 °F 39.3 °F 41.0 °F 93% 30.12 in 7.0 mi NNE 5.8 mph - N/A   Clear
7:35 AM 42.8 °F 40.1 °F 41.0 °F 93% 30.13 in 7.0 mi NNE 4.6 mph - N/A   Clear
7:55 AM 44.6 °F 42.2 °F 41.0 °F 87% 30.16 in 7.0 mi NNE 4.6 mph - N/A   Clear
8:15 AM 44.6 °F 40.2 °F 41.0 °F 87% 30.15 in 7.0 mi NNE 8.1 mph - N/A   Clear
8:35 AM 44.6 °F 39.7 °F 41.0 °F 87% 30.15 in 5.0 mi NNE 9.2 mph - N/A   Clear
8:55 AM 44.6 °F 40.2 °F 41.0 °F 87% 30.15 in 7.0 mi NNE 8.1 mph - N/A   Clear
9:15 AM 46.4 °F 41.9 °F 41.0 °F 81% 30.15 in 7.0 mi NNE 9.2 mph - N/A   Clear
9:35 AM 48.2 °F - 41.0 °F 76% 30.16 in 7.0 mi NNE 9.2 mph - N/A   Clear
9:55 AM 48.2 °F - 41.0 °F 76% 30.17 in 7.0 mi NE 6.9 mph - N/A   Clear
10:15 AM 50.0 °F - 41.0 °F 71% 30.18 in 7.0 mi NNE 5.8 mph - N/A   Clear
10:35 AM 50.0 °F - 39.2 °F 66% 30.15 in 7.0 mi NNE 8.1 mph - N/A   Clear
10:55 AM 50.0 °F - 41.0 °F 71% 30.16 in 5.0 mi NNE 5.8 mph - N/A   Haze
11:15 AM 50.0 °F - 41.0 °F 71% 30.16 in 5.0 mi North 5.8 mph - N/A   Haze
11:35 AM 50.0 °F - 39.2 °F 66% 30.14 in 7.0 mi NE 6.9 mph - N/A   Clear
11:55 AM 51.8 °F - 39.2 °F 62% 30.13 in 7.0 mi NE 5.8 mph - N/A   Clear
12:15 PM 51.8 °F - 39.2 °F 62% 30.13 in 7.0 mi North 5.8 mph - N/A   Clear
12:35 PM 53.6 °F - 39.2 °F 58% 30.12 in 7.0 mi NNE 5.8 mph - N/A   Clear
12:55 PM 53.6 °F - 39.2 °F 58% 30.11 in 7.0 mi North 3.5 mph - N/A   Clear
1:15 PM 53.6 °F - 39.2 °F 58% 30.09 in 7.0 mi NW 4.6 mph - N/A   Clear
1:35 PM 55.4 °F - 41.0 °F 58% 30.08 in 7.0 mi North 6.9 mph - N/A   Clear
2:15 PM 55.4 °F - 42.8 °F 63% 30.08 in 7.0 mi NW 5.8 mph - N/A   Clear
2:35 PM 55.4 °F - 42.8 °F 63% 30.08 in 5.0 mi WNW 4.6 mph - N/A   Haze
2:55 PM 57.2 °F - 42.8 °F 59% 30.07 in 5.0 mi NW 5.8 mph - N/A   Haze
3:15 PM 57.2 °F - 42.8 °F 59% 30.06 in 7.0 mi NW 6.9 mph - N/A   Clear
3:35 PM 57.2 °F - 42.8 °F 59% 30.06 in 7.0 mi WNW 5.8 mph - N/A   Clear
3:55 PM 57.2 °F - 42.8 °F 59% 30.06 in 7.0 mi NW 8.1 mph - N/A   Clear
4:15 PM 57.2 °F - 41.0 °F 55% 30.05 in 7.0 mi NW 6.9 mph - N/A   Clear
4:35 PM 57.2 °F - 41.0 °F 55% 30.05 in 5.0 mi NW 5.8 mph - N/A   Haze
5:15 PM 55.4 °F - 39.2 °F 54% 30.05 in 7.0 mi NNW 3.5 mph - N/A   Clear
5:35 PM 55.4 °F - 37.4 °F 51% 30.06 in 7.0 mi NNW 3.5 mph - N/A   Clear
6:15 PM 50.0 °F - 39.2 °F 66% 30.07 in 10.0 mi Calm Calm - N/A   Clear
6:35 PM 46.4 °F - 42.8 °F 87% 30.08 in 7.0 mi Calm Calm - N/A   Clear
6:55 PM 44.6 °F - 41.0 °F 87% 30.09 in 7.0 mi Calm Calm - N/A   Clear
7:15 PM 42.8 °F - 41.0 °F 93% 30.09 in 10.0 mi Calm Calm - N/A   Clear
7:35 PM 42.8 °F - 41.0 °F 93% 30.10 in 7.0 mi Calm Calm - N/A   Clear
7:55 PM 42.8 °F - 39.2 °F 87% 30.10 in 10.0 mi Calm Calm - N/A   Clear
8:15 PM 44.6 °F 43.1 °F 41.0 °F 87% 30.10 in 10.0 mi North 3.5 mph - N/A   Clear
8:35 PM 44.6 °F 43.1 °F 39.2 °F 81% 30.10 in 7.0 mi NNE 3.5 mph - N/A   Clear
8:55 PM 42.8 °F - 37.4 °F 81% 30.11 in 10.0 mi Calm Calm - N/A   Clear
9:15 PM 41.0 °F - 37.4 °F 87% 30.10 in 7.0 mi Calm Calm - N/A   Clear
9:35 PM 41.0 °F - 39.2 °F 93% 30.11 in 7.0 mi Calm Calm - N/A   Clear
9:55 PM 41.0 °F - 37.4 °F 87% 30.11 in 7.0 mi Calm Calm - N/A   Clear
10:15 PM 39.2 °F - 37.4 °F 93% 30.11 in 7.0 mi Calm Calm - N/A   Clear
10:35 PM 37.4 °F - 37.4 °F 100% 30.11 in 7.0 mi Calm Calm - N/A   Clear
10:55 PM 37.4 °F - 37.4 °F 100% 30.11 in 7.0 mi Calm Calm - N/A   Clear
11:15 PM 37.4 °F - 37.4 °F 100% 30.10 in 5.0 mi Calm Calm - N/A   Clear
11:35 PM 37.4 °F - 37.4 °F 100% 30.10 in 7.0 mi Calm Calm - N/A   Clear
11:55 PM 37.4 °F - 37.4 °F 100% 30.10 in 5.0 mi Calm Calm - N/A   Clear